TimePDT,TemperatureF,Dew PointF,Humidity,Sea Level PressureIn,VisibilityMPH,Wind Direction,Wind SpeedMPH,Gust SpeedMPH,PrecipitationIn,Events,Conditions,WindDirDegrees,DateUTC
12:56 AM,64.0,46.0,52,29.96,10.0,Calm,Calm,-,N/A,,Overcast,0,2013-09-03 07:56:00
1:56 AM,63.0,46.9,56,29.97,10.0,Calm,Calm,-,N/A,,Overcast,0,2013-09-03 08:56:00
2:56 AM,63.0,46.9,56,29.97,10.0,Calm,Calm,-,N/A,,Overcast,0,2013-09-03 09:56:00
3:56 AM,60.1,46.0,60,29.96,10.0,Variable,3.5,-,N/A,,Overcast,0,2013-09-03 10:56:00
4:56 AM,57.0,46.0,67,29.98,10.0,Calm,Calm,-,N/A,,Scattered Clouds,0,2013-09-03 11:56:00
5:56 AM,52.0,45.0,77,29.99,10.0,Calm,Calm,-,N/A,,Clear,0,2013-09-03 12:56:00
6:56 AM,50.0,43.0,77,30.02,10.0,Calm,Calm,-,N/A,,Clear,0,2013-09-03 13:56:00
7:56 AM,55.9,44.1,64,30.02,10.0,Calm,Calm,-,N/A,,Clear,0,2013-09-03 14:56:00
8:56 AM,64.0,46.9,54,30.02,10.0,Calm,Calm,-,N/A,,Clear,0,2013-09-03 15:56:00
9:56 AM,70.0,43.0,38,30.02,10.0,Variable,3.5,-,N/A,,Clear,0,2013-09-03 16:56:00
10:56 AM,71.1,46.0,41,30.01,10.0,Calm,Calm,-,N/A,,Clear,0,2013-09-03 17:56:00
11:56 AM,73.9,46.0,37,30.01,10.0,Variable,3.5,-,N/A,,Clear,0,2013-09-03 18:56:00
12:56 PM,75.9,44.1,32,30.01,10.0,Variable,3.5,-,N/A,,Clear,0,2013-09-03 19:56:00
1:56 PM,78.1,44.1,30,30.00,10.0,Variable,3.5,-,N/A,,Clear,0,2013-09-03 20:56:00
2:56 PM,79.0,43.0,28,29.99,10.0,Calm,Calm,-,N/A,,Clear,0,2013-09-03 21:56:00
3:56 PM,77.0,37.9,24,29.99,10.0,Calm,Calm,-,N/A,,Clear,0,2013-09-03 22:56:00
4:56 PM,75.0,37.9,26,29.99,10.0,Calm,Calm,-,N/A,,Clear,0,2013-09-03 23:56:00
5:56 PM,73.9,37.0,26,29.99,10.0,Calm,Calm,-,N/A,,Clear,0,2013-09-04 00:56:00
6:56 PM,69.1,41.0,36,30.00,10.0,Calm,Calm,-,N/A,,Clear,0,2013-09-04 01:56:00
7:56 PM,60.1,43.0,53,30.01,10.0,Calm,Calm,-,N/A,,Clear,0,2013-09-04 02:56:00
8:56 PM,57.0,41.0,55,30.03,10.0,Calm,Calm,-,N/A,,Clear,0,2013-09-04 03:56:00
9:56 PM,53.1,39.9,61,30.04,10.0,Calm,Calm,-,N/A,,Clear,0,2013-09-04 04:56:00
10:56 PM,52.0,39.0,61,30.05,10.0,Calm,Calm,-,N/A,,Clear,0,2013-09-04 05:56:00
11:56 PM,52.0,41.0,66,30.05,10.0,Calm,Calm,-,N/A,,Clear,0,2013-09-04 06:56:00